Regional Weather Roundup
Issued by NWS

Home | Current Version | Previous Version | Text Only | Print | Product List | Glossary Off
Versions: 1 2 3 4 5 6 7 8 9 10 11 12 13 14 15 16 17 18 19 20 21 22 23 24 25 26 27 28 29 30 31 32 33 34 35 36 37 38 39 40 41 42 43 44 45 46 47 48 49 50

000
ASUS43 KLOT 012158
RWRIL

ILLINOIS REGIONAL WEATHER ROUNDUP
NATIONAL WEATHER SERVICE CHICAGO/ROMEOVILLE IL
500 PM CDT WED OCT 01 2014

NOTE: "FAIR" INDICATES FEW OR NO CLOUDS BELOW 12,000 FEET WITH NO
SIGNIFICANT WEATHER AND/OR OBSTRUCTIONS TO VISIBILITY.

* THESE STATIONS ARE NOT UNDER NWS QUALITY CONTROL. THEY ALSO MAY NOT
  REPORT WEATHER SUCH AS PRECIPITATION OR FOG.

ILZ001-002-007-009-015-016-024-012300-
NORTHWEST ILLINOIS

CITY           SKY/WX    TMP DP  RH WIND       PRES   REMARKS
MOLINE         CLOUDY    71  60  68 VRB3      29.80F
$$

ILZ003-004-008-010-011-017-018-012300-
NORTH CENTRAL ILLINOIS

CITY           SKY/WX    TMP DP  RH WIND       PRES   REMARKS
ROCKFORD       CLOUDY    72  54  53 SE13      29.86F
$$

ILZ005-006-012>014-019>023-012300-
NORTHEAST ILLINOIS

CITY           SKY/WX    TMP DP  RH WIND       PRES   REMARKS
CHICAGO-OHARE  PTSUNNY   67  52  58 SE13      29.89F
CHICAGO-MIDWAY NOT AVBL
AURORA         MOSUNNY   72  55  55 SE12      29.86F
WAUKEGAN       NOT AVBL
DUPAGE AIRPORT MOSUNNY   70  55  59 SE8       29.88F
WHEELING       PTSUNNY   67  53  61 SE8       29.91F
NORTHERLY ISL    N/A     65  57  75 E9          N/A
$$

LMZ740>746-012300-
SOUTHERN LAKE MICHIGAN

STATION/POSITION SKY/WX   TEMP    WIND        PRES    VSBY  WAVE
                          AIR SEA DIR/SP/G                  HT/PER
                          (F)     (DEG/KT/KT) (MB)    (MI)  (FT/S)
SOUTHERN BUOY              59 61  110/ 14/ 16 1013.9F         2/ 3
WAUKEGAN HARBOR            61     130/ 11/ 14   N/A
HARRISON CRIB              62      90/ 14/ 16   N/A
CALUMET HARBOR             70     130/  7/ 10 1011.8S
MICHIGAN CITY              68      90/ 10/ 13   N/A
$$

ILZ025>027-034>036-040-047-049-050-058-095>099-012300-
WEST-CENTRAL ILLINOIS

CITY           SKY/WX    TMP DP  RH WIND       PRES   REMARKS
QUINCY         TSTM      64  64 100 CALM      29.85R
$$

ILZ028>032-037-038-041>044-048-051>054-059>061-012300-
CENTRAL ILLINOIS

CITY           SKY/WX    TMP DP  RH WIND       PRES   REMARKS
PEORIA         LGT RAIN  73  63  70 SW6       29.84S
SPRINGFIELD    CLOUDY    82  62  50 E5        29.83F HX  83
TAYLORVILLE    NOT AVBL
$$

ILZ033-039-045-046-055>057-062-063-012300-
EAST-CENTRAL ILLINOIS

CITY           SKY/WX    TMP DP  RH WIND       PRES   REMARKS
$$

ILZ079-100>102-012300-
SOUTHWEST ILLINOIS

CITY           SKY/WX    TMP DP  RH WIND       PRES   REMARKS
$$

ILZ064>066-069>071-074>076-080>082-084>086-088>090-092>094-012300-
SOUTH-CENTRAL ILLINOIS

CITY           SKY/WX    TMP DP  RH WIND       PRES   REMARKS
CARBONDALE     SUNNY     84  61  45 S12       29.86R HX  84
$$

ILZ067-068-072-073-078-083-087-091-012300-
SOUTHEAST ILLINOIS

CITY           SKY/WX    TMP DP  RH WIND       PRES   REMARKS
$$

ABBREVIATIONS USED IN REMARKS
   TC - TEMPERATURE IN CELSIUS
  WCI - WIND CHILL INDEX
   HX - HEAT INDEX
  VSB - VISIBILITY
$$




USA.gov is the U.S. government's official web portal to all federal, state and local government web resources and services.